Location: San Martino di Castrozza
(46.2667°N, 11.8000°E)
Time: 07:10:50
(UTC+00:00)

Cosmos 1953 - Visible Passes

Search period start: 29 July 2021 00:00
Search period end: 08 August 2021 00:00
Orbit: 538 x 557 km, 82.5° (Epoch: 28 July)

Date Brightness Start Highest point End Pass type
(mag) Time Alt. Az. Time Alt. Az. Time Alt. Az.
30 Jul 5.6 02:41:57 10° E 02:42:48 11° E 02:43:39 10° ENE visible
31 Jul 5.5 02:36:22 10° ESE 02:37:39 11° E 02:38:56 10° ENE visible
01 Aug 5.4 02:30:53 10° ESE 02:32:30 12° E 02:34:06 10° ENE visible
02 Aug 5.3 02:25:29 10° ESE 02:27:21 13° E 02:29:11 10° ENE visible
03 Aug 5.2 02:20:08 10° ESE 02:22:11 14° E 02:24:15 10° NE visible
04 Aug 5.1 02:14:48 10° ESE 02:17:02 15° E 02:19:17 10° NE visible
05 Aug 5.1 02:09:29 10° ESE 02:11:53 16° E 02:14:18 10° NE visible
06 Aug 5.0 02:04:10 10° SE 02:06:44 17° E 02:09:18 10° NE visible
07 Aug 4.9 01:58:53 10° SE 02:01:36 18° E 02:04:17 10° NE visible
